This is the latest recevied weather packets stored in our database for station/object EW8324. If no packets are shown the sender has not sent any weather packets the latest 10 day(s).
| Time | Temp. | Humidity | Pressure | Rain* | Wind** | Luminosity | Snow |
|---|---|---|---|---|---|---|---|
| 1777850974 | 25.56° C | 41% | 1013.2 hPa | 0.25 mm | - | 32 W/m² | - |
| 1777850671 | 25.56° C | 40% | 1013.3 hPa | 0.25 mm | - | 49 W/m² | - |
| 1777850375 | 25.56° C | 40% | 1013.4 hPa | 0.25 mm | - | 48 W/m² | - |
| 1777850134 | 25.56° C | 40% | 1013.3 hPa | 0.25 mm | - | 76 W/m² | - |
| 1777849776 | 25.56° C | 40% | 1013.3 hPa | 0.25 mm | - | 83 W/m² | - |
| 1777849472 | 26.11° C | 40% | 1013.3 hPa | 0.25 mm | - | 60 W/m² | - |
| 1777849237 | 26.11° C | 41% | 1013.4 hPa | 0.25 mm | - | 114 W/m² | - |
| 1777848869 | 26.11° C | 40% | 1013.5 hPa | 0.25 mm | - | 97 W/m² | - |
| 1777848572 | 26.11° C | 39% | 1013.5 hPa | 0.25 mm | - | 84 W/m² | - |
| 1777848271 | 26.11° C | 39% | 1013.4 hPa | 0.25 mm | - | 76 W/m² | - |
| 1777848033 | 26.11° C | 40% | 1013.5 hPa | 0.25 mm | - | 200 W/m² | - |
| 1777847669 | 26.11° C | 38% | 1013.6 hPa | 0.25 mm | - | 162 W/m² | - |
| 1777847373 | 26.11° C | 38% | 1013.7 hPa | 0.25 mm | - | 327 W/m² | - |
| 1777847070 | 26.11° C | 40% | 1013.8 hPa | 0.25 mm | - | 325 W/m² | - |
| 1777846772 | 26.11° C | 40% | 1013.8 hPa | 0.25 mm | - | 251 W/m² | - |
| 1777846468 | 26.11° C | 39% | 1014 hPa | 0.25 mm | - | 100 W/m² | - |
| 1777846234 | 26.67° C | 38% | 1014.1 hPa | 0.25 mm | - | 107 W/m² | - |
| 1777845871 | 26.67° C | 38% | 1013.9 hPa | 0.25 mm | - | 104 W/m² | - |
| 1777845633 | 26.67° C | 39% | 1013.9 hPa | 0 mm | - | 121 W/m² | - |
| 1777845269 | 26.67° C | 37% | 1014 hPa | 0 mm | - | 149 W/m² | - |
| 1777845032 | 26.67° C | 39% | 1013.9 hPa | 0 mm | - | 283 W/m² | - |
| 1777844668 | 26.11° C | 37% | 1014 hPa | 0 mm | - | 267 W/m² | - |
| 1777844372 | 26.11° C | 37% | 1014.1 hPa | 0.25 mm | - | 489 W/m² | - |
| 1777844069 | 26.11° C | 36% | 1014.3 hPa | 0.25 mm | - | 364 W/m² | - |
| 1777843831 | 26.67° C | 36% | 1014.4 hPa | 0.25 mm | - | 536 W/m² | - |
* Rain latest hour (hover to see other rain measurements)
** Current wind speed in m/s (hover to see current wind gust speed)